Location: De Har
(53.3413°N, 6.6858°E)
Time: 16:13:40
(UTC+00:00)

Cosmos 1867 - Pass Details

Date: 22 April 2026
Orbit: 775 x 798 km, 65.0° (Epoch: 9 May)

Event Time Altitude Azimuth Distance (km) Brightness Sun altitude
Exits shadow 01:06:15 32° 257° (WSW) 1,350 4.4 -21.5°
Maximum altitude 01:08:39 58° 322° (NW) 932 4.0 -21.3°
Drops below altitude 10° 01:14:04 10° 41° (NE) 2,379 7.1 -21.0°
Sets 01:16:33 0° 46° (NE) 3,313 8.1 -20.8°
